GXA829 MTPP-MUVR

Flight info

Callsign GXA829
Flight time N/A
Altitude 32000
Route ALPIG1N ALPIG DCT LEVIS UA890 UCU J3 UKULO DCT APRIK TARGO2A
Aircraft A320/M-SDE3FGHIRWY/LB1

Departure

Time 2026-04-22 00:19
Airport Toussaint Louverture International Airport (MTPP)

Arrival

Time N/A
Airport Juan Gualberto Gomez International Airport (MUVR)
Time Latitude Longitude Altitude Speed Heading
2026-04-22 00:10 18.57614 -72.29508 77 ft 1 kts 194°
2026-04-22 00:11 18.57622 -72.29506 102 ft 4 kts 192°
2026-04-22 00:11 18.57649 -72.29501 101 ft 4 kts 181°
2026-04-22 00:11 18.57674 -72.29505 99 ft 4 kts 136°
2026-04-22 00:12 18.57680 -72.29515 101 ft 0 kts 85°
2026-04-22 00:12 18.57681 -72.29515 101 ft 0 kts 85°
2026-04-22 00:14 18.57681 -72.29509 99 ft 4 kts 85°
2026-04-22 00:14 18.57701 -72.29465 101 ft 7 kts 33°
2026-04-22 00:14 18.57745 -72.29459 101 ft 6 kts
2026-04-22 00:14 18.57780 -72.29461 101 ft 4 kts 356°
2026-04-22 00:15 18.57803 -72.29463 101 ft 5 kts 356°
2026-04-22 00:15 18.57863 -72.29466 102 ft 9 kts 357°
2026-04-22 00:15 18.57933 -72.29469 105 ft 12 kts 357°
2026-04-22 00:15 18.57998 -72.29411 107 ft 20 kts 85°
2026-04-22 00:16 18.58008 -72.29244 106 ft 24 kts 85°
2026-04-22 00:16 18.58014 -72.29069 110 ft 23 kts 89°
2026-04-22 00:16 18.58019 -72.28905 115 ft 21 kts 87°
2026-04-22 00:16 18.58027 -72.28751 116 ft 21 kts 86°
2026-04-22 00:17 18.58037 -72.28601 120 ft 23 kts 86°
2026-04-22 00:17 18.58042 -72.28424 122 ft 24 kts 88°
2026-04-22 00:17 18.58053 -72.28244 125 ft 25 kts 85°
2026-04-22 00:17 18.58067 -72.28058 128 ft 25 kts 86°
2026-04-22 00:18 18.58076 -72.27893 126 ft 14 kts 72°
2026-04-22 00:18 18.58077 -72.27836 130 ft 2 kts 201°
2026-04-22 00:18 18.58077 -72.27846 130 ft 1 kts 263°
2026-04-22 00:18 18.58071 -72.27933 130 ft 34 kts 266°
2026-04-22 00:19 18.58046 -72.28434 121 ft 102 kts 266°
2026-04-22 00:19 18.57997 -72.29388 108 ft 156 kts 266°
2026-04-22 00:19 18.57914 -72.30647 414 ft 185 kts 267°
2026-04-22 00:19 18.57833 -72.32035 1445 ft 190 kts 268°
2026-04-22 00:20 18.57767 -72.33425 2542 ft 190 kts 269°
2026-04-22 00:20 18.57705 -72.34862 3102 ft 208 kts 270°
2026-04-22 00:20 18.57797 -72.36475 3419 ft 232 kts 277°
2026-04-22 00:20 18.58028 -72.38257 3781 ft 256 kts 281°
2026-04-22 00:21 18.58328 -72.40159 4422 ft 268 kts 281°
2026-04-22 00:21 18.58644 -72.42116 5213 ft 273 kts 281°
2026-04-22 00:21 18.58956 -72.44080 6012 ft 276 kts 281°
2026-04-22 00:21 18.59266 -72.46114 6789 ft 280 kts 280°
2026-04-22 00:22 18.59568 -72.48139 7541 ft 284 kts 280°
2026-04-22 00:22 18.59868 -72.50203 8309 ft 287 kts 280°
2026-04-22 00:22 18.60168 -72.52304 9095 ft 290 kts 280°
2026-04-22 00:22 18.60467 -72.54423 9857 ft 293 kts 280°
2026-04-22 00:23 18.60770 -72.56574 10390 ft 305 kts 280°
2026-04-22 00:23 18.61093 -72.58874 10559 ft 328 kts 279°
2026-04-22 00:23 18.61434 -72.61293 10897 ft 342 kts 279°
2026-04-22 00:23 18.61780 -72.63790 11511 ft 347 kts 279°
2026-04-22 00:24 18.62123 -72.66334 12187 ft 350 kts 279°
2026-04-22 00:24 18.62464 -72.68890 12862 ft 353 kts 279°
2026-04-22 00:24 18.62808 -72.71432 13523 ft 355 kts 279°
2026-04-22 00:24 18.63161 -72.74019 14133 ft 357 kts 279°
2026-04-22 00:25 18.63518 -72.76635 14701 ft 360 kts 279°
2026-04-22 00:25 18.63872 -72.79251 15286 ft 362 kts 278°
2026-04-22 00:25 18.64227 -72.81895 15862 ft 364 kts 278°
2026-04-22 00:25 18.64583 -72.84547 16432 ft 366 kts 278°
2026-04-22 00:26 18.64975 -72.87168 16981 ft 368 kts 283°
2026-04-22 00:26 18.65801 -72.89740 17534 ft 370 kts 295°
2026-04-22 00:26 18.67135 -72.92083 18082 ft 374 kts 306°
2026-04-22 00:26 18.68885 -72.94126 18576 ft 377 kts 311°
2026-04-22 00:27 18.70451 -72.96339 19039 ft 377 kts 297°
2026-04-22 00:27 18.71453 -72.98858 19518 ft 377 kts 285°
2026-04-22 00:27 18.72044 -73.01560 20013 ft 378 kts 282°
2026-04-22 00:27 18.72628 -73.04274 20502 ft 379 kts 282°
2026-04-22 00:28 18.73240 -73.06981 20978 ft 381 kts 283°
2026-04-22 00:28 18.73873 -73.09715 21457 ft 382 kts 283°
2026-04-22 00:28 18.74499 -73.12406 21923 ft 383 kts 283°
2026-04-22 00:28 18.75135 -73.15150 22382 ft 385 kts 283°
2026-04-22 00:29 18.75769 -73.17911 22827 ft 387 kts 282°
2026-04-22 00:29 18.76399 -73.20675 23260 ft 388 kts 282°
2026-04-22 00:29 18.77027 -73.23455 23665 ft 390 kts 282°
2026-04-22 00:29 18.77650 -73.26218 24004 ft 391 kts 282°
2026-04-22 00:30 18.78281 -73.29020 24348 ft 392 kts 282°
2026-04-22 00:30 18.78917 -73.31834 24688 ft 394 kts 282°
2026-04-22 00:30 18.79557 -73.34655 25017 ft 395 kts 282°
2026-04-22 00:30 18.80196 -73.37466 25343 ft 396 kts 282°
2026-04-22 00:31 18.80840 -73.40306 25662 ft 398 kts 283°
2026-04-22 00:31 18.81478 -73.43125 25984 ft 399 kts 283°
2026-04-22 00:31 18.82127 -73.46008 26299 ft 400 kts 282°
2026-04-22 00:31 18.82765 -73.48845 26608 ft 401 kts 283°
2026-04-22 00:32 18.83413 -73.51716 26908 ft 402 kts 283°
2026-04-22 00:32 18.84063 -73.54603 27214 ft 404 kts 283°
2026-04-22 00:32 18.84710 -73.57492 27499 ft 405 kts 283°
2026-04-22 00:32 18.85359 -73.60394 27791 ft 406 kts 283°
2026-04-22 00:33 18.86012 -73.63305 28082 ft 407 kts 283°
2026-04-22 00:33 18.86666 -73.66213 28365 ft 408 kts 283°
2026-04-22 00:33 18.87317 -73.69102 28647 ft 410 kts 283°
2026-04-22 00:33 18.87978 -73.72043 28915 ft 411 kts 283°
2026-04-22 00:34 18.88638 -73.74993 29176 ft 412 kts 283°
2026-04-22 00:34 18.89296 -73.77935 29428 ft 413 kts 283°
2026-04-22 00:34 18.89964 -73.80914 29679 ft 414 kts 283°
2026-04-22 00:34 18.90618 -73.83849 29919 ft 415 kts 283°
2026-04-22 00:35 18.91283 -73.86834 30148 ft 417 kts 283°
2026-04-22 00:35 18.91945 -73.89816 30341 ft 418 kts 283°
2026-04-22 00:35 18.92383 -73.91793 30466 ft 418 kts 283°
2026-04-22 00:35 18.93051 -73.94800 30653 ft 419 kts 283°
2026-04-22 00:36 18.93723 -73.97800 30841 ft 420 kts 283°
2026-04-22 00:36 18.94609 -74.01771 31186 ft 418 kts 283°
2026-04-22 00:36 18.95058 -74.03791 31360 ft 417 kts 283°
2026-04-22 00:36 18.95711 -74.06742 31611 ft 416 kts 283°
2026-04-22 00:37 18.96369 -74.09726 31876 ft 416 kts 283°
2026-04-22 00:37 18.97026 -74.12704 32135 ft 415 kts 283°
2026-04-22 00:37 18.97679 -74.15666 32399 ft 414 kts 282°
2026-04-22 00:37 18.98332 -74.18631 32651 ft 413 kts 282°
2026-04-22 00:38 18.98976 -74.21559 32909 ft 412 kts 282°
2026-04-22 00:38 18.99628 -74.24512 33029 ft 410 kts 282°
2026-04-22 00:38 19.00274 -74.27424 33053 ft 404 kts 282°
2026-04-22 00:39 19.01539 -74.33160 33056 ft 402 kts 282°
2026-04-22 00:39 19.02820 -74.38918 33053 ft 401 kts 285°
2026-04-22 00:40 19.05251 -74.44186 33054 ft 405 kts 303°
2026-04-22 00:40 19.08556 -74.49030 33057 ft 406 kts 302°
2026-04-22 00:41 19.11832 -74.53861 33057 ft 405 kts 302°
2026-04-22 00:41 19.15114 -74.58725 33061 ft 405 kts 302°
2026-04-22 00:42 19.18392 -74.63581 33060 ft 404 kts 302°
2026-04-22 00:42 19.21649 -74.68396 33062 ft 404 kts 302°
2026-04-22 00:43 19.24921 -74.73241 33059 ft 404 kts 302°
2026-04-22 00:43 19.28198 -74.78097 33060 ft 404 kts 302°
2026-04-22 00:44 19.31448 -74.82909 33059 ft 403 kts 302°
2026-04-22 00:44 19.34708 -74.87751 33057 ft 403 kts 302°
2026-04-22 00:45 19.37942 -74.92565 33052 ft 403 kts 302°
2026-04-22 00:45 19.41196 -74.97406 33053 ft 402 kts 302°
2026-04-22 00:46 19.44442 -75.02243 33048 ft 402 kts 302°
2026-04-22 00:46 19.47661 -75.07046 33048 ft 402 kts 302°
2026-04-22 00:47 19.50908 -75.11890 33049 ft 402 kts 302°
2026-04-22 00:47 19.54157 -75.16735 33051 ft 402 kts 302°
2026-04-22 00:48 19.57370 -75.21535 33056 ft 402 kts 302°
2026-04-22 00:48 19.60630 -75.26394 33060 ft 402 kts 302°
2026-04-22 00:49 19.63842 -75.31208 33063 ft 401 kts 302°
2026-04-22 00:49 19.67067 -75.36048 33066 ft 401 kts 302°
2026-04-22 00:50 19.70300 -75.40892 33065 ft 401 kts 302°
2026-04-22 00:50 19.73504 -75.45696 33065 ft 400 kts 302°
2026-04-22 00:51 19.76714 -75.50528 33059 ft 399 kts 302°
2026-04-22 00:51 19.79917 -75.55356 33052 ft 399 kts 302°
2026-04-22 00:52 19.83100 -75.60143 33050 ft 399 kts 302°
2026-04-22 00:52 19.86313 -75.64971 33050 ft 399 kts 302°
2026-04-22 00:53 19.89514 -75.69786 33052 ft 398 kts 302°
2026-04-22 00:53 19.92692 -75.74575 33055 ft 398 kts 301°
2026-04-22 00:54 19.95886 -75.79397 33056 ft 398 kts 301°
2026-04-22 00:54 19.98704 -75.84398 33056 ft 394 kts 292°
2026-04-22 00:55 20.00988 -75.89709 33056 ft 394 kts 292°
2026-04-22 00:55 20.04410 -75.97630 33053 ft 394 kts 292°
2026-04-22 00:56 20.06677 -76.02907 33052 ft 394 kts 292°
2026-04-22 00:56 20.08960 -76.08216 33052 ft 393 kts 292°
2026-04-22 00:57 20.11227 -76.13498 33054 ft 393 kts 292°
2026-04-22 00:57 20.13499 -76.18792 33053 ft 393 kts 292°
2026-04-22 00:58 20.15771 -76.24086 33054 ft 393 kts 292°
2026-04-22 00:58 20.18026 -76.29363 33056 ft 392 kts 292°
2026-04-22 00:59 20.20285 -76.34656 33060 ft 392 kts 292°
2026-04-22 00:59 20.22551 -76.39955 33062 ft 392 kts 292°
2026-04-22 01:00 20.24809 -76.45227 33065 ft 392 kts 292°
2026-04-22 01:00 20.27069 -76.50519 33067 ft 392 kts 292°
2026-04-22 01:01 20.29325 -76.55814 33067 ft 392 kts 292°
2026-04-22 01:01 20.31567 -76.61083 33066 ft 392 kts 292°
2026-04-22 01:02 20.33822 -76.66380 33067 ft 392 kts 292°
2026-04-22 01:02 20.36059 -76.71653 33065 ft 392 kts 292°
2026-04-22 01:03 20.38307 -76.76948 33068 ft 392 kts 292°
2026-04-22 01:03 20.40557 -76.82250 33070 ft 392 kts 292°
2026-04-22 01:04 20.42788 -76.87520 33063 ft 392 kts 292°
2026-04-22 01:04 20.45041 -76.92829 33066 ft 391 kts 292°
2026-04-22 01:05 20.47264 -76.98101 33073 ft 391 kts 292°
2026-04-22 01:05 20.49487 -77.03369 33074 ft 391 kts 292°
2026-04-22 01:06 20.51733 -77.08690 33074 ft 391 kts 292°
2026-04-22 01:06 20.53959 -77.13960 33073 ft 391 kts 292°
2026-04-22 01:07 20.56187 -77.19262 33077 ft 391 kts 291°
2026-04-22 01:07 20.58415 -77.24571 33076 ft 391 kts 291°
2026-04-22 01:08 20.60633 -77.29846 33077 ft 391 kts 292°
2026-04-22 01:08 20.62869 -77.35154 33076 ft 391 kts 291°
2026-04-22 01:09 20.65081 -77.40440 33083 ft 391 kts 291°
2026-04-22 01:09 20.67305 -77.45760 33080 ft 391 kts 291°
2026-04-22 01:10 20.69523 -77.51077 33079 ft 391 kts 291°
2026-04-22 01:10 20.71745 -77.56390 33084 ft 392 kts 291°
2026-04-22 01:11 20.73957 -77.61675 33081 ft 392 kts 291°
2026-04-22 01:11 20.76183 -77.67008 33084 ft 392 kts 291°
2026-04-22 01:12 20.78396 -77.72334 33086 ft 392 kts 291°
2026-04-22 01:12 20.80597 -77.77631 33086 ft 392 kts 291°
2026-04-22 01:13 20.82821 -77.82965 33090 ft 392 kts 291°
2026-04-22 01:13 20.85023 -77.88267 33088 ft 392 kts 291°
2026-04-22 01:14 20.87217 -77.93564 33091 ft 392 kts 291°
2026-04-22 01:14 20.89432 -77.98904 33095 ft 392 kts 291°
2026-04-22 01:15 20.91641 -78.04234 33088 ft 392 kts 291°
2026-04-22 01:15 20.93853 -78.09575 33094 ft 392 kts 291°
2026-04-22 01:16 20.96045 -78.14870 33092 ft 392 kts 291°
2026-04-22 01:16 20.98246 -78.20218 33097 ft 392 kts 291°
2026-04-22 01:17 21.00433 -78.25534 33096 ft 392 kts 291°
2026-04-22 01:17 21.02644 -78.30876 33096 ft 392 kts 291°
2026-04-22 01:18 21.04846 -78.36218 33095 ft 392 kts 291°
2026-04-22 01:18 21.07041 -78.41568 33089 ft 392 kts 291°
2026-04-22 01:19 21.09225 -78.46890 33092 ft 391 kts 291°
2026-04-22 01:19 21.11421 -78.52238 33097 ft 391 kts 291°
2026-04-22 01:20 21.13599 -78.57559 33099 ft 392 kts 291°
2026-04-22 01:20 21.15797 -78.62924 33101 ft 392 kts 291°
2026-04-22 01:21 21.18062 -78.68212 33103 ft 392 kts 292°
2026-04-22 01:21 21.20408 -78.73519 33105 ft 392 kts 292°
2026-04-22 01:22 21.22722 -78.78784 33106 ft 392 kts 292°
2026-04-22 01:22 21.25028 -78.84091 33109 ft 392 kts 292°
2026-04-22 01:23 21.27328 -78.89408 33104 ft 392 kts 292°
2026-04-22 01:23 21.29622 -78.94713 33108 ft 392 kts 292°
2026-04-22 01:24 21.31916 -78.99993 33109 ft 392 kts 292°
2026-04-22 01:24 21.34220 -79.05294 33107 ft 391 kts 292°
2026-04-22 01:25 21.36498 -79.10566 33105 ft 391 kts 292°
2026-04-22 01:25 21.38789 -79.15878 33105 ft 391 kts 292°
2026-04-22 01:26 21.41068 -79.21151 33108 ft 391 kts 292°
2026-04-22 01:26 21.43361 -79.26467 33109 ft 391 kts 292°
2026-04-22 01:27 21.45258 -79.30877 33109 ft 391 kts 292°
2026-04-22 01:27 21.47915 -79.37054 33107 ft 391 kts 292°
2026-04-22 01:28 21.49827 -79.41502 33114 ft 391 kts 292°
2026-04-22 01:28 21.52101 -79.46788 33116 ft 391 kts 292°
2026-04-22 01:29 21.54374 -79.52084 33118 ft 391 kts 292°
2026-04-22 01:29 21.56647 -79.57405 33117 ft 391 kts 292°
2026-04-22 01:30 21.58914 -79.62719 33122 ft 391 kts 292°
2026-04-22 01:30 21.61191 -79.68029 33121 ft 390 kts 292°
2026-04-22 01:31 21.63438 -79.73281 33121 ft 390 kts 292°
2026-04-22 01:31 21.65708 -79.78579 33122 ft 392 kts 294°
2026-04-22 01:32 21.67232 -79.81069 33127 ft 403 kts 303°
2026-04-22 01:32 21.68958 -79.83465 33126 ft 404 kts 303°
2026-04-22 01:32 21.72182 -79.88268 33126 ft 394 kts 300°
2026-04-22 01:33 21.75242 -79.93146 33129 ft 392 kts 300°
2026-04-22 01:33 21.78306 -79.98007 33128 ft 392 kts 300°
2026-04-22 01:34 21.81376 -80.02803 33130 ft 391 kts 301°
2026-04-22 01:34 21.84487 -80.07626 33130 ft 392 kts 301°
2026-04-22 01:35 21.87592 -80.12455 33126 ft 391 kts 301°
2026-04-22 01:35 21.90660 -80.17254 33127 ft 391 kts 301°
2026-04-22 01:36 21.93753 -80.22085 32907 ft 392 kts 301°
2026-04-22 01:36 21.95298 -80.24498 32654 ft 391 kts 301°
2026-04-22 01:36 21.96834 -80.26896 32405 ft 390 kts 301°
2026-04-22 01:37 21.98356 -80.29274 32123 ft 387 kts 301°
2026-04-22 01:37 21.99884 -80.31657 31640 ft 382 kts 302°
2026-04-22 01:37 22.01393 -80.34010 31153 ft 379 kts 302°
2026-04-22 01:37 22.02884 -80.36339 30668 ft 376 kts 302°
2026-04-22 01:38 22.04365 -80.38660 30184 ft 374 kts 302°
2026-04-22 01:38 22.05830 -80.40960 29650 ft 371 kts 302°
2026-04-22 01:38 22.07281 -80.43237 29191 ft 366 kts 302°
2026-04-22 01:38 22.08704 -80.45468 28735 ft 363 kts 302°
2026-04-22 01:39 22.10127 -80.47700 28269 ft 359 kts 302°
2026-04-22 01:39 22.11533 -80.49906 27830 ft 356 kts 303°
2026-04-22 01:39 22.12935 -80.52111 27391 ft 353 kts 303°
2026-04-22 01:39 22.14320 -80.54293 26965 ft 350 kts 303°
2026-04-22 01:40 22.15689 -80.56449 26543 ft 347 kts 303°
2026-04-22 01:40 22.17053 -80.58598 26137 ft 345 kts 303°
2026-04-22 01:40 22.18387 -80.60700 25746 ft 342 kts 303°
2026-04-22 01:40 22.19730 -80.62812 25346 ft 339 kts 303°
2026-04-22 01:41 22.21062 -80.64907 24962 ft 337 kts 303°
2026-04-22 01:41 22.22387 -80.66991 24574 ft 334 kts 303°
2026-04-22 01:41 22.23696 -80.69054 24185 ft 332 kts 303°
2026-04-22 01:41 22.24985 -80.71084 23799 ft 330 kts 303°
2026-04-22 01:42 22.26278 -80.73124 23360 ft 328 kts 303°
2026-04-22 01:42 22.27566 -80.75155 22960 ft 324 kts 303°
2026-04-22 01:42 22.28831 -80.77152 22572 ft 322 kts 303°
2026-04-22 01:42 22.30096 -80.79147 22175 ft 320 kts 303°